DAL1467 KDTW-KATL

Flight info

Callsign DAL1467
Flight time 1h 28m
Altitude 26000
Route CLVIN3 STAZE FLM KTRYN ONDRE1
Aircraft B738/M-SDE2E3FGHIRWXY/LB1

Departure

Time 2026-05-06 02:32
Airport Detroit Metropolitan Wayne County Airport (KDTW)

Arrival

Time 2026-05-06 04:00
Airport Hartsfield Jackson Atlanta International Airport (KATL)
Time Latitude Longitude Altitude Speed Heading
2026-05-06 01:57 42.20398 -83.36189 649 ft 0 kts 122°
2026-05-06 02:11 42.20400 -83.36195 649 ft 4 kts 122°
2026-05-06 02:11 42.20414 -83.36225 651 ft 4 kts 122°
2026-05-06 02:11 42.20426 -83.36257 652 ft 4 kts 101°
2026-05-06 02:12 42.20425 -83.36290 651 ft 4 kts 58°
2026-05-06 02:12 42.20413 -83.36307 649 ft 1 kts 29°
2026-05-06 02:12 42.20411 -83.36308 651 ft 0 kts 29°
2026-05-06 02:14 42.20415 -83.36306 649 ft 2 kts 29°
2026-05-06 02:14 42.20450 -83.36279 650 ft 9 kts 29°
2026-05-06 02:15 42.20526 -83.36222 649 ft 15 kts 28°
2026-05-06 02:15 42.20628 -83.36148 649 ft 17 kts 28°
2026-05-06 02:15 42.20730 -83.36074 649 ft 16 kts 28°
2026-05-06 02:15 42.20809 -83.36038 649 ft 9 kts 334°
2026-05-06 02:16 42.20808 -83.36107 650 ft 8 kts 227°
2026-05-06 02:16 42.20740 -83.36168 649 ft 16 kts 209°
2026-05-06 02:16 42.20619 -83.36258 650 ft 21 kts 208°
2026-05-06 02:16 42.20499 -83.36347 649 ft 19 kts 208°
2026-05-06 02:17 42.20384 -83.36432 649 ft 19 kts 208°
2026-05-06 02:17 42.20282 -83.36506 649 ft 13 kts 208°
2026-05-06 02:17 42.20214 -83.36487 649 ft 11 kts 121°
2026-05-06 02:17 42.20190 -83.36360 649 ft 17 kts 102°
2026-05-06 02:18 42.20170 -83.36203 649 ft 17 kts 100°
2026-05-06 02:18 42.20162 -83.36050 649 ft 16 kts 89°
2026-05-06 02:18 42.20165 -83.35896 649 ft 19 kts 88°
2026-05-06 02:18 42.20168 -83.35716 650 ft 19 kts 89°
2026-05-06 02:19 42.20171 -83.35540 648 ft 18 kts 88°
2026-05-06 02:19 42.20174 -83.35371 648 ft 18 kts 88°
2026-05-06 02:19 42.20177 -83.35208 648 ft 13 kts 86°
2026-05-06 02:19 42.20223 -83.35165 648 ft 13 kts 22°
2026-05-06 02:20 42.20411 -83.35032 649 ft 15 kts 28°
2026-05-06 02:20 42.20502 -83.35015 649 ft 13 kts 349°
2026-05-06 02:20 42.20587 -83.34983 648 ft 13 kts 29°
2026-05-06 02:21 42.20663 -83.34927 648 ft 12 kts 28°
2026-05-06 02:21 42.20753 -83.34860 648 ft 18 kts 29°
2026-05-06 02:21 42.20839 -83.34778 648 ft 11 kts 59°
2026-05-06 02:21 42.20881 -83.34687 650 ft 14 kts 37°
2026-05-06 02:22 42.20988 -83.34606 649 ft 17 kts 28°
2026-05-06 02:22 42.21061 -83.34543 648 ft 11 kts 55°
2026-05-06 02:22 42.21048 -83.34451 649 ft 10 kts 117°
2026-05-06 02:22 42.21030 -83.34406 648 ft 0 kts 117°
2026-05-06 02:23 42.21029 -83.34395 648 ft 4 kts 98°
2026-05-06 02:23 42.21011 -83.34352 648 ft 5 kts 175°
2026-05-06 02:24 42.21007 -83.34382 648 ft 5 kts 307°
2026-05-06 02:24 42.21050 -83.34457 649 ft 15 kts 305°
2026-05-06 02:24 42.21102 -83.34583 648 ft 16 kts 299°
2026-05-06 02:24 42.21154 -83.34710 646 ft 15 kts 299°
2026-05-06 02:25 42.21203 -83.34827 644 ft 14 kts 304°
2026-05-06 02:25 42.21271 -83.34897 648 ft 11 kts 335°
2026-05-06 02:25 42.21346 -83.34877 648 ft 12 kts 28°
2026-05-06 02:25 42.21442 -83.34807 647 ft 18 kts 28°
2026-05-06 02:26 42.21550 -83.34727 648 ft 17 kts 28°
2026-05-06 02:26 42.21649 -83.34654 649 ft 16 kts 28°
2026-05-06 02:26 42.21743 -83.34585 648 ft 15 kts 28°
2026-05-06 02:26 42.21833 -83.34519 648 ft 14 kts 29°
2026-05-06 02:27 42.21919 -83.34455 650 ft 15 kts 28°
2026-05-06 02:27 42.22016 -83.34383 648 ft 16 kts 28°
2026-05-06 02:27 42.22111 -83.34314 647 ft 15 kts 28°
2026-05-06 02:27 42.22203 -83.34246 649 ft 15 kts 28°
2026-05-06 02:28 42.22291 -83.34181 648 ft 14 kts 28°
2026-05-06 02:28 42.22399 -83.34102 648 ft 20 kts 28°
2026-05-06 02:28 42.22518 -83.34014 648 ft 19 kts 29°
2026-05-06 02:28 42.22633 -83.33928 648 ft 18 kts 28°
2026-05-06 02:29 42.22741 -83.33851 647 ft 16 kts 28°
2026-05-06 02:29 42.22819 -83.33792 647 ft 12 kts 33°
2026-05-06 02:29 42.22850 -83.33718 645 ft 9 kts 97°
2026-05-06 02:29 42.22811 -83.33656 644 ft 9 kts 157°
2026-05-06 02:30 42.22771 -83.33663 644 ft 0 kts 207°
2026-05-06 02:31 42.22768 -83.33665 645 ft 6 kts 207°
2026-05-06 02:31 42.22489 -83.33868 647 ft 84 kts 208°
2026-05-06 02:31 42.21774 -83.34393 648 ft 150 kts 208°
2026-05-06 02:32 42.20729 -83.35142 991 ft 183 kts 208°
2026-05-06 02:32 42.19510 -83.35984 1552 ft 202 kts 210°
2026-05-06 02:32 42.18210 -83.36836 2204 ft 215 kts 203°
2026-05-06 02:32 42.16729 -83.37304 2845 ft 221 kts 195°
2026-05-06 02:33 42.15183 -83.37849 3194 ft 240 kts 198°
2026-05-06 02:33 42.14107 -83.38254 3591 ft 244 kts 198°
2026-05-06 02:33 42.10249 -83.39711 5230 ft 249 kts 198°
2026-05-06 02:34 42.08523 -83.40363 5775 ft 262 kts 199°
2026-05-06 02:34 42.06767 -83.41010 6601 ft 264 kts 198°
2026-05-06 02:34 42.04988 -83.41602 7485 ft 262 kts 198°
2026-05-06 02:34 42.03233 -83.42174 8372 ft 263 kts 198°
2026-05-06 02:35 42.01448 -83.42759 9221 ft 265 kts 198°
2026-05-06 02:35 41.99644 -83.43353 10020 ft 268 kts 198°
2026-05-06 02:35 41.97826 -83.43954 10668 ft 275 kts 198°
2026-05-06 02:35 41.95869 -83.44533 10849 ft 302 kts 190°
2026-05-06 02:36 41.93671 -83.44442 11042 ft 329 kts 179°
2026-05-06 02:36 41.91337 -83.44101 11402 ft 344 kts 178°
2026-05-06 02:36 41.88941 -83.43726 12037 ft 349 kts 178°
2026-05-06 02:36 41.86521 -83.43357 12749 ft 351 kts 179°
2026-05-06 02:37 41.84089 -83.43002 13481 ft 353 kts 179°
2026-05-06 02:37 41.81654 -83.42660 14118 ft 355 kts 179°
2026-05-06 02:37 41.79208 -83.42322 14938 ft 352 kts 180°
2026-05-06 02:37 41.76775 -83.41991 15636 ft 352 kts 180°
2026-05-06 02:38 41.74329 -83.41662 16248 ft 355 kts 180°
2026-05-06 02:38 41.71861 -83.41363 16846 ft 356 kts 184°
2026-05-06 02:38 41.69470 -83.41761 17422 ft 349 kts 200°
2026-05-06 02:38 41.67163 -83.42752 18053 ft 349 kts 203°
2026-05-06 02:39 41.64858 -83.43828 18567 ft 352 kts 204°
2026-05-06 02:39 41.62532 -83.44925 19037 ft 356 kts 204°
2026-05-06 02:39 41.60181 -83.46023 19512 ft 360 kts 204°
2026-05-06 02:39 41.57802 -83.47120 20012 ft 363 kts 204°
2026-05-06 02:40 41.55401 -83.48215 20491 ft 366 kts 204°
2026-05-06 02:40 41.52979 -83.49313 20964 ft 369 kts 204°
2026-05-06 02:40 41.50562 -83.50405 21415 ft 373 kts 204°
2026-05-06 02:40 41.48058 -83.51533 21877 ft 376 kts 204°
2026-05-06 02:41 41.45573 -83.52652 22310 ft 378 kts 204°
2026-05-06 02:41 41.43102 -83.53765 22696 ft 381 kts 204°
2026-05-06 02:41 41.40575 -83.54901 23072 ft 385 kts 204°
2026-05-06 02:41 41.38034 -83.56043 23457 ft 387 kts 204°
2026-05-06 02:42 41.35470 -83.57194 23794 ft 389 kts 204°
2026-05-06 02:42 41.32900 -83.58346 24141 ft 391 kts 205°
2026-05-06 02:42 41.30309 -83.59507 24474 ft 393 kts 205°
2026-05-06 02:42 41.27715 -83.60669 24797 ft 395 kts 205°
2026-05-06 02:43 41.25102 -83.61838 25113 ft 397 kts 205°
2026-05-06 02:43 41.22469 -83.63016 25421 ft 399 kts 205°
2026-05-06 02:43 41.19825 -83.64197 25762 ft 400 kts 205°
2026-05-06 02:43 41.17237 -83.65348 25854 ft 394 kts 205°
2026-05-06 02:44 41.14663 -83.66491 25887 ft 387 kts 205°
2026-05-06 02:44 41.12241 -83.67568 25882 ft 386 kts 205°
2026-05-06 02:44 41.09693 -83.68705 25894 ft 387 kts 205°
2026-05-06 02:44 41.07127 -83.69850 25892 ft 389 kts 205°
2026-05-06 02:45 41.04565 -83.70991 25885 ft 389 kts 205°
2026-05-06 02:45 41.01991 -83.72135 25884 ft 389 kts 205°
2026-05-06 02:45 40.99427 -83.73273 25886 ft 389 kts 205°
2026-05-06 02:45 40.96864 -83.74409 25884 ft 388 kts 205°
2026-05-06 02:46 40.94303 -83.75544 25884 ft 388 kts 205°
2026-05-06 02:46 40.91749 -83.76675 25880 ft 387 kts 205°
2026-05-06 02:46 40.89191 -83.77807 25878 ft 387 kts 205°
2026-05-06 02:46 40.86644 -83.78933 25878 ft 386 kts 205°
2026-05-06 02:47 40.84125 -83.80046 25880 ft 386 kts 205°
2026-05-06 02:47 40.81581 -83.81168 25878 ft 385 kts 205°
2026-05-06 02:47 40.79040 -83.82289 25881 ft 385 kts 206°
2026-05-06 02:47 40.76494 -83.83411 25882 ft 385 kts 206°
2026-05-06 02:48 40.73948 -83.84533 25884 ft 385 kts 206°
2026-05-06 02:48 40.71408 -83.85652 25885 ft 385 kts 206°
2026-05-06 02:48 40.69723 -83.86393 25888 ft 385 kts 206°
2026-05-06 02:48 40.66319 -83.87890 25884 ft 386 kts 206°
2026-05-06 02:49 40.64637 -83.88629 25886 ft 386 kts 206°
2026-05-06 02:49 40.62092 -83.89746 25887 ft 386 kts 206°
2026-05-06 02:49 40.59541 -83.90866 25887 ft 386 kts 206°
2026-05-06 02:49 40.56990 -83.91984 25885 ft 387 kts 206°
2026-05-06 02:50 40.54433 -83.93104 25884 ft 387 kts 206°
2026-05-06 02:50 40.51880 -83.94221 25897 ft 387 kts 206°
2026-05-06 02:50 40.49328 -83.95337 25895 ft 387 kts 206°
2026-05-06 02:50 40.46775 -83.96452 25895 ft 387 kts 206°
2026-05-06 02:51 40.44216 -83.97570 25900 ft 387 kts 206°
2026-05-06 02:51 40.41690 -83.98672 25898 ft 387 kts 206°
2026-05-06 02:51 40.39080 -83.99810 25895 ft 387 kts 206°
2026-05-06 02:51 40.36575 -84.00901 25900 ft 387 kts 206°
2026-05-06 02:52 40.34081 -84.01987 25903 ft 388 kts 206°
2026-05-06 02:52 40.31510 -84.03106 25902 ft 390 kts 206°
2026-05-06 02:52 40.28917 -84.04187 25888 ft 395 kts 201°
2026-05-06 02:52 40.26142 -84.04638 25909 ft 406 kts 191°
2026-05-06 02:53 40.23319 -84.04807 25886 ft 407 kts 191°
2026-05-06 02:53 40.20491 -84.04970 25886 ft 406 kts 191°
2026-05-06 02:53 40.17672 -84.05159 25884 ft 405 kts 192°
2026-05-06 02:53 40.14857 -84.05371 25876 ft 405 kts 192°
2026-05-06 02:54 40.12052 -84.05591 25875 ft 404 kts 192°
2026-05-06 02:54 40.09240 -84.05813 25875 ft 404 kts 192°
2026-05-06 02:54 40.06433 -84.06033 25876 ft 404 kts 192°
2026-05-06 02:54 40.03658 -84.06251 25871 ft 404 kts 192°
2026-05-06 02:55 40.00848 -84.06470 25879 ft 404 kts 192°
2026-05-06 02:55 39.98043 -84.06689 25876 ft 405 kts 192°
2026-05-06 02:55 39.95227 -84.06909 25871 ft 405 kts 192°
2026-05-06 02:55 39.92420 -84.07128 25848 ft 405 kts 192°
2026-05-06 02:56 39.89595 -84.07347 25840 ft 406 kts 192°
2026-05-06 02:56 39.86784 -84.07566 25845 ft 406 kts 192°
2026-05-06 02:56 39.83955 -84.07786 25848 ft 406 kts 192°
2026-05-06 02:56 39.81129 -84.08005 25849 ft 407 kts 193°
2026-05-06 02:57 39.78301 -84.08224 25849 ft 407 kts 193°
2026-05-06 02:57 39.75470 -84.08444 25856 ft 408 kts 193°
2026-05-06 02:57 39.72633 -84.08664 25849 ft 409 kts 193°
2026-05-06 02:57 39.69790 -84.08883 25844 ft 409 kts 193°
2026-05-06 02:58 39.66950 -84.09103 25850 ft 409 kts 193°
2026-05-06 02:58 39.64107 -84.09322 25846 ft 409 kts 193°
2026-05-06 02:58 39.61265 -84.09540 25849 ft 409 kts 193°
2026-05-06 02:58 39.58424 -84.09759 25845 ft 409 kts 193°
2026-05-06 02:59 39.55585 -84.09977 25846 ft 409 kts 193°
2026-05-06 02:59 39.52741 -84.10196 25839 ft 409 kts 193°
2026-05-06 02:59 39.49898 -84.10414 25834 ft 409 kts 193°
2026-05-06 02:59 39.47063 -84.10632 25844 ft 409 kts 193°
2026-05-06 03:00 39.44229 -84.10850 25834 ft 409 kts 193°
2026-05-06 03:00 39.41376 -84.11070 25842 ft 410 kts 193°
2026-05-06 03:00 39.38527 -84.11289 25839 ft 411 kts 193°
2026-05-06 03:00 39.35678 -84.11508 25827 ft 411 kts 193°
2026-05-06 03:01 39.32812 -84.11726 25831 ft 411 kts 193°
2026-05-06 03:01 39.29962 -84.11943 25828 ft 410 kts 193°
2026-05-06 03:01 39.27152 -84.12157 25827 ft 410 kts 193°
2026-05-06 03:01 39.24296 -84.12375 25839 ft 410 kts 193°
2026-05-06 03:02 39.21438 -84.12593 25836 ft 411 kts 193°
2026-05-06 03:02 39.18584 -84.12811 25831 ft 411 kts 193°
2026-05-06 03:02 39.15726 -84.13028 25829 ft 411 kts 193°
2026-05-06 03:02 39.12860 -84.13246 25832 ft 411 kts 193°
2026-05-06 03:03 39.10001 -84.13464 25832 ft 411 kts 193°
2026-05-06 03:03 39.07142 -84.13681 25842 ft 411 kts 193°
2026-05-06 03:03 39.04285 -84.13898 25830 ft 412 kts 193°
2026-05-06 03:03 39.01460 -84.14112 25823 ft 412 kts 193°
2026-05-06 03:04 38.98601 -84.14328 25824 ft 411 kts 193°
2026-05-06 03:04 38.95746 -84.14544 25823 ft 411 kts 194°
2026-05-06 03:04 38.92967 -84.15077 25809 ft 394 kts 207°
2026-05-06 03:04 38.90484 -84.16391 25834 ft 385 kts 213°
2026-05-06 03:05 38.88052 -84.17823 25831 ft 384 kts 214°
2026-05-06 03:05 38.85622 -84.19258 25833 ft 385 kts 213°
2026-05-06 03:05 38.83173 -84.20687 25831 ft 386 kts 213°
2026-05-06 03:05 38.80718 -84.22103 25818 ft 386 kts 213°
2026-05-06 03:06 38.78274 -84.23498 25819 ft 386 kts 213°
2026-05-06 03:06 38.75819 -84.24893 25814 ft 386 kts 213°
2026-05-06 03:06 38.73365 -84.26286 25824 ft 385 kts 213°
2026-05-06 03:06 38.70911 -84.27677 25823 ft 385 kts 213°
2026-05-06 03:07 38.68410 -84.28961 25809 ft 394 kts 204°
2026-05-06 03:07 38.65674 -84.29359 25825 ft 414 kts 187°
2026-05-06 03:07 38.62804 -84.28782 25822 ft 433 kts 172°
2026-05-06 03:07 38.60022 -84.27101 25839 ft 452 kts 156°
2026-05-06 03:08 38.57372 -84.24912 25831 ft 455 kts 154°
2026-05-06 03:08 38.54747 -84.22633 25826 ft 456 kts 154°
2026-05-06 03:08 38.52126 -84.20328 25818 ft 457 kts 154°
2026-05-06 03:08 38.49510 -84.18035 25821 ft 457 kts 154°
2026-05-06 03:09 38.46880 -84.15754 25823 ft 456 kts 154°
2026-05-06 03:09 38.44248 -84.13496 25833 ft 456 kts 154°
2026-05-06 03:09 38.41608 -84.11249 25833 ft 456 kts 154°
2026-05-06 03:09 38.38968 -84.09014 25831 ft 456 kts 155°
2026-05-06 03:10 38.36318 -84.06778 25839 ft 456 kts 155°
2026-05-06 03:10 38.33671 -84.04547 25847 ft 456 kts 155°
2026-05-06 03:10 38.31024 -84.02319 25847 ft 456 kts 155°
2026-05-06 03:10 38.28390 -84.00102 25852 ft 456 kts 155°
2026-05-06 03:11 38.25740 -83.97874 25853 ft 455 kts 155°
2026-05-06 03:11 38.23088 -83.95645 25857 ft 455 kts 154°
2026-05-06 03:11 38.20482 -83.93456 25866 ft 455 kts 154°
2026-05-06 03:11 38.17837 -83.91237 25869 ft 455 kts 154°
2026-05-06 03:12 38.15192 -83.89021 25880 ft 455 kts 154°
2026-05-06 03:12 38.12545 -83.86804 25876 ft 456 kts 154°
2026-05-06 03:12 38.09895 -83.84587 25867 ft 456 kts 154°
2026-05-06 03:12 38.07246 -83.82372 25867 ft 456 kts 154°
2026-05-06 03:13 38.04599 -83.80160 25875 ft 456 kts 154°
2026-05-06 03:13 38.01949 -83.77948 25864 ft 457 kts 154°
2026-05-06 03:13 37.99290 -83.75731 25865 ft 457 kts 154°
2026-05-06 03:13 37.96635 -83.73518 25859 ft 457 kts 154°
2026-05-06 03:14 37.93981 -83.71309 25859 ft 457 kts 154°
2026-05-06 03:14 37.91320 -83.69096 25860 ft 457 kts 154°
2026-05-06 03:14 37.88660 -83.66885 25844 ft 457 kts 154°
2026-05-06 03:14 37.86037 -83.64707 25844 ft 457 kts 154°
2026-05-06 03:15 37.83376 -83.62499 25849 ft 457 kts 154°
2026-05-06 03:15 37.80716 -83.60295 25868 ft 457 kts 154°
2026-05-06 03:15 37.78053 -83.58089 25867 ft 457 kts 154°
2026-05-06 03:15 37.75394 -83.55889 25873 ft 457 kts 154°
2026-05-06 03:16 37.72731 -83.53687 25880 ft 457 kts 154°
2026-05-06 03:16 37.70072 -83.51490 25880 ft 456 kts 154°
2026-05-06 03:16 37.67414 -83.49297 25881 ft 456 kts 154°
2026-05-06 03:16 37.64756 -83.47105 25886 ft 456 kts 154°
2026-05-06 03:17 37.62094 -83.44912 25893 ft 456 kts 154°
2026-05-06 03:17 37.59435 -83.42724 25899 ft 456 kts 154°
2026-05-06 03:17 37.56776 -83.40538 25889 ft 456 kts 154°
2026-05-06 03:17 37.54146 -83.38376 25896 ft 456 kts 154°
2026-05-06 03:18 37.51488 -83.36193 25904 ft 456 kts 154°
2026-05-06 03:18 37.48826 -83.34010 25896 ft 456 kts 154°
2026-05-06 03:18 37.46161 -83.31828 25910 ft 457 kts 154°
2026-05-06 03:18 37.43500 -83.29649 25918 ft 457 kts 154°
2026-05-06 03:19 37.40831 -83.27465 25923 ft 457 kts 154°
2026-05-06 03:19 37.38160 -83.25282 25893 ft 458 kts 154°
2026-05-06 03:19 37.35487 -83.23098 25893 ft 458 kts 154°
2026-05-06 03:19 37.32818 -83.20919 25895 ft 457 kts 154°
2026-05-06 03:20 37.27475 -83.16563 25883 ft 458 kts 153°
2026-05-06 03:20 37.24808 -83.14391 25879 ft 457 kts 153°
2026-05-06 03:20 37.22135 -83.12218 25887 ft 457 kts 153°
2026-05-06 03:21 37.19498 -83.10075 25872 ft 457 kts 153°
2026-05-06 03:21 37.16794 -83.07881 25871 ft 458 kts 153°
2026-05-06 03:21 37.14153 -83.05740 25878 ft 458 kts 153°
2026-05-06 03:21 37.11477 -83.03570 25878 ft 459 kts 153°
2026-05-06 03:22 37.08795 -83.01398 25870 ft 459 kts 153°
2026-05-06 03:22 37.06118 -82.99230 25860 ft 458 kts 153°
2026-05-06 03:22 37.03442 -82.97067 25881 ft 458 kts 153°
2026-05-06 03:22 37.00771 -82.94908 25903 ft 457 kts 153°
2026-05-06 03:23 36.98095 -82.92747 25901 ft 457 kts 153°
2026-05-06 03:23 36.95402 -82.90635 25895 ft 454 kts 159°
2026-05-06 03:23 36.92514 -82.89186 25903 ft 441 kts 173°
2026-05-06 03:23 36.89534 -82.88544 25902 ft 430 kts 184°
2026-05-06 03:24 36.86596 -82.88659 25898 ft 419 kts 195°
2026-05-06 03:24 36.83705 -82.89143 25894 ft 418 kts 195°
2026-05-06 03:24 36.80816 -82.89644 25889 ft 419 kts 195°
2026-05-06 03:24 36.77930 -82.90137 25889 ft 419 kts 195°
2026-05-06 03:25 36.75029 -82.90620 25899 ft 420 kts 195°
2026-05-06 03:25 36.72163 -82.91085 25885 ft 420 kts 195°
2026-05-06 03:25 36.69221 -82.91553 25902 ft 421 kts 194°
2026-05-06 03:25 36.66355 -82.92005 25898 ft 421 kts 194°
2026-05-06 03:26 36.63448 -82.92461 25887 ft 421 kts 194°
2026-05-06 03:26 36.60533 -82.92917 25907 ft 421 kts 194°
2026-05-06 03:26 36.57622 -82.93373 25893 ft 421 kts 194°
2026-05-06 03:26 36.54712 -82.93828 25897 ft 421 kts 194°
2026-05-06 03:27 36.51801 -82.94284 25898 ft 422 kts 194°
2026-05-06 03:27 36.48888 -82.94740 25902 ft 422 kts 194°
2026-05-06 03:27 36.45975 -82.95195 25912 ft 422 kts 194°
2026-05-06 03:27 36.43065 -82.95649 25916 ft 422 kts 194°
2026-05-06 03:28 36.40150 -82.96105 25922 ft 422 kts 194°
2026-05-06 03:28 36.37244 -82.96558 25925 ft 420 kts 194°
2026-05-06 03:28 36.34363 -82.97004 25648 ft 412 kts 194°
2026-05-06 03:28 36.31522 -82.97447 25081 ft 412 kts 194°
2026-05-06 03:29 36.28666 -82.97895 24483 ft 414 kts 194°
2026-05-06 03:29 36.25836 -82.98339 24305 ft 408 kts 194°
2026-05-06 03:29 36.22986 -82.98800 24208 ft 419 kts 194°
2026-05-06 03:29 36.20063 -82.99280 24107 ft 426 kts 194°
2026-05-06 03:30 36.17125 -82.99758 23996 ft 425 kts 194°
2026-05-06 03:30 36.14224 -83.00225 23955 ft 425 kts 193°
2026-05-06 03:30 36.11293 -83.00696 23949 ft 424 kts 193°
2026-05-06 03:30 36.08364 -83.01166 23943 ft 424 kts 193°
2026-05-06 03:31 36.05433 -83.01637 23932 ft 425 kts 193°
2026-05-06 03:31 36.02505 -83.02108 23935 ft 424 kts 193°
2026-05-06 03:31 35.99575 -83.02579 23935 ft 424 kts 193°
2026-05-06 03:31 35.96645 -83.03049 23932 ft 424 kts 193°
2026-05-06 03:32 35.93719 -83.03519 23931 ft 424 kts 193°
2026-05-06 03:32 35.90783 -83.03990 23928 ft 425 kts 193°
2026-05-06 03:32 35.87852 -83.04460 23928 ft 424 kts 193°
2026-05-06 03:32 35.84922 -83.04929 23940 ft 425 kts 193°
2026-05-06 03:33 35.81986 -83.05399 23938 ft 425 kts 193°
2026-05-06 03:33 35.79061 -83.05904 23943 ft 424 kts 197°
2026-05-06 03:33 35.76265 -83.06811 23939 ft 418 kts 206°
2026-05-06 03:33 35.73629 -83.08237 23949 ft 413 kts 211°
2026-05-06 03:34 35.71043 -83.09775 23945 ft 412 kts 211°
2026-05-06 03:34 35.68460 -83.11318 23947 ft 412 kts 212°
2026-05-06 03:34 35.65874 -83.12850 23939 ft 412 kts 211°
2026-05-06 03:34 35.63292 -83.14366 23957 ft 412 kts 211°
2026-05-06 03:35 35.60693 -83.15883 23963 ft 412 kts 211°
2026-05-06 03:35 35.58087 -83.17396 23969 ft 413 kts 211°
2026-05-06 03:35 35.55480 -83.18907 23984 ft 415 kts 211°
2026-05-06 03:35 35.52892 -83.20405 23972 ft 417 kts 211°
2026-05-06 03:36 35.50263 -83.21925 23985 ft 418 kts 211°
2026-05-06 03:36 35.47627 -83.23448 23969 ft 419 kts 211°
2026-05-06 03:36 35.44988 -83.24971 23970 ft 419 kts 211°
2026-05-06 03:36 35.42347 -83.26491 23947 ft 419 kts 211°
2026-05-06 03:37 35.39708 -83.27985 23994 ft 417 kts 211°
2026-05-06 03:37 35.37075 -83.29472 23980 ft 417 kts 211°
2026-05-06 03:37 35.34434 -83.30963 23984 ft 418 kts 211°
2026-05-06 03:37 35.32685 -83.31949 23972 ft 418 kts 211°
2026-05-06 03:38 35.30048 -83.33437 23994 ft 417 kts 211°
2026-05-06 03:38 35.27410 -83.34925 23982 ft 418 kts 211°
2026-05-06 03:38 35.24764 -83.36418 23988 ft 418 kts 211°
2026-05-06 03:38 35.22120 -83.37908 23983 ft 418 kts 210°
2026-05-06 03:39 35.19476 -83.39397 23984 ft 418 kts 211°
2026-05-06 03:39 35.16835 -83.40884 23986 ft 418 kts 211°
2026-05-06 03:39 35.14188 -83.42373 23994 ft 418 kts 210°
2026-05-06 03:39 35.11541 -83.43862 23990 ft 419 kts 210°
2026-05-06 03:40 35.08896 -83.45348 24004 ft 419 kts 211°
2026-05-06 03:40 35.06242 -83.46841 23989 ft 419 kts 211°
2026-05-06 03:40 35.03603 -83.48350 23989 ft 420 kts 211°
2026-05-06 03:40 35.00963 -83.49873 23996 ft 419 kts 211°
2026-05-06 03:41 34.98324 -83.51399 23991 ft 419 kts 211°
2026-05-06 03:41 34.95726 -83.52899 23994 ft 418 kts 211°
2026-05-06 03:41 34.93098 -83.54414 24007 ft 417 kts 211°
2026-05-06 03:41 34.90472 -83.55926 23994 ft 418 kts 211°
2026-05-06 03:42 34.87843 -83.57437 23996 ft 417 kts 211°
2026-05-06 03:42 34.85219 -83.58944 24002 ft 418 kts 211°
2026-05-06 03:42 34.82581 -83.60458 24003 ft 419 kts 211°
2026-05-06 03:42 34.79942 -83.61971 24009 ft 420 kts 211°
2026-05-06 03:43 34.77291 -83.63489 24011 ft 420 kts 211°
2026-05-06 03:43 34.74645 -83.65004 24011 ft 421 kts 211°
2026-05-06 03:43 34.71986 -83.66524 24017 ft 421 kts 211°
2026-05-06 03:43 34.69335 -83.68040 24016 ft 422 kts 211°
2026-05-06 03:44 34.66678 -83.69558 24021 ft 422 kts 211°
2026-05-06 03:44 34.64021 -83.71074 24021 ft 422 kts 211°
2026-05-06 03:44 34.61373 -83.72583 24029 ft 421 kts 211°
2026-05-06 03:44 34.58754 -83.74077 23867 ft 412 kts 211°
2026-05-06 03:45 34.56174 -83.75549 23441 ft 408 kts 211°
2026-05-06 03:45 34.53623 -83.77005 22959 ft 402 kts 211°
2026-05-06 03:45 34.51104 -83.78442 22497 ft 397 kts 211°
2026-05-06 03:45 34.48624 -83.79856 22028 ft 392 kts 211°
2026-05-06 03:46 34.46204 -83.81237 21588 ft 387 kts 211°
2026-05-06 03:46 34.43776 -83.82621 21143 ft 383 kts 211°
2026-05-06 03:46 34.41383 -83.83985 20705 ft 380 kts 211°
2026-05-06 03:46 34.38992 -83.85347 20257 ft 377 kts 212°
2026-05-06 03:47 34.36621 -83.86697 19784 ft 376 kts 212°
2026-05-06 03:47 34.34257 -83.88040 19318 ft 374 kts 212°
2026-05-06 03:47 34.31918 -83.89385 18857 ft 370 kts 213°
2026-05-06 03:47 34.29646 -83.90805 18410 ft 366 kts 214°
2026-05-06 03:48 34.27406 -83.92252 17896 ft 361 kts 214°
2026-05-06 03:48 34.25217 -83.93665 17396 ft 353 kts 214°
2026-05-06 03:48 34.23068 -83.95035 16916 ft 345 kts 214°
2026-05-06 03:48 34.20962 -83.96369 16467 ft 338 kts 213°
2026-05-06 03:49 34.18897 -83.97674 16028 ft 331 kts 213°
2026-05-06 03:49 34.16870 -83.98954 15607 ft 328 kts 213°
2026-05-06 03:49 34.14850 -84.00231 15209 ft 329 kts 213°
2026-05-06 03:49 34.12821 -84.01513 14809 ft 329 kts 213°
2026-05-06 03:50 34.10793 -84.02794 14422 ft 328 kts 212°
2026-05-06 03:50 34.08807 -84.04045 14059 ft 324 kts 212°
2026-05-06 03:50 34.06798 -84.05311 13658 ft 320 kts 212°
2026-05-06 03:50 34.04865 -84.06527 13254 ft 316 kts 212°
2026-05-06 03:51 34.02929 -84.07745 12836 ft 312 kts 212°
2026-05-06 03:51 34.00959 -84.08901 12421 ft 312 kts 203°
2026-05-06 03:51 33.98838 -84.09321 12028 ft 318 kts 182°
2026-05-06 03:51 33.96634 -84.08959 11659 ft 318 kts 174°
2026-05-06 03:52 33.94474 -84.08470 11260 ft 314 kts 174°
2026-05-06 03:52 33.92342 -84.07993 10875 ft 309 kts 175°
2026-05-06 03:52 33.90240 -84.07753 10466 ft 298 kts 191°
2026-05-06 03:52 33.88280 -84.08340 10114 ft 286 kts 205°
2026-05-06 03:53 33.86461 -84.09248 9749 ft 280 kts 207°
2026-05-06 03:53 33.84702 -84.10190 9348 ft 275 kts 208°
2026-05-06 03:53 33.82969 -84.11124 8967 ft 271 kts 207°
2026-05-06 03:53 33.81255 -84.12039 8592 ft 268 kts 207°
2026-05-06 03:54 33.79583 -84.12925 8239 ft 263 kts 207°
2026-05-06 03:54 33.77923 -84.13796 7892 ft 252 kts 207°
2026-05-06 03:54 33.76347 -84.14620 7508 ft 243 kts 207°
2026-05-06 03:54 33.74842 -84.15406 7158 ft 235 kts 207°
2026-05-06 03:55 33.73379 -84.16169 6844 ft 224 kts 207°
2026-05-06 03:55 33.71972 -84.16902 6504 ft 216 kts 207°
2026-05-06 03:55 33.70612 -84.17609 6157 ft 210 kts 207°
2026-05-06 03:55 33.69293 -84.18294 5831 ft 204 kts 206°
2026-05-06 03:56 33.68007 -84.18962 5481 ft 199 kts 206°
2026-05-06 03:56 33.66747 -84.19616 5148 ft 196 kts 206°
2026-05-06 03:56 33.65648 -84.20517 4833 ft 193 kts 230°
2026-05-06 03:56 33.65038 -84.21949 4492 ft 196 kts 256°
2026-05-06 03:57 33.64990 -84.23599 4205 ft 198 kts 265°
2026-05-06 03:57 33.64977 -84.25254 3866 ft 198 kts 265°
2026-05-06 03:57 33.64969 -84.26904 3561 ft 197 kts 264°
2026-05-06 03:57 33.64965 -84.28533 3229 ft 192 kts 264°
2026-05-06 03:58 33.64964 -84.30106 2893 ft 186 kts 264°
2026-05-06 03:58 33.64961 -84.31607 2588 ft 180 kts 263°
2026-05-06 03:58 33.64958 -84.33107 2320 ft 178 kts 263°
2026-05-06 03:58 33.64959 -84.34575 2056 ft 172 kts 263°
2026-05-06 03:59 33.64958 -84.35960 1863 ft 158 kts 265°
2026-05-06 03:59 33.64970 -84.37275 1630 ft 156 kts 264°
2026-05-06 03:59 33.64949 -84.38557 1433 ft 153 kts 267°
2026-05-06 03:59 33.64953 -84.39838 1218 ft 154 kts 269°
2026-05-06 04:00 33.64949 -84.41118 1026 ft 150 kts 270°
2026-05-06 04:00 33.64952 -84.42247 1006 ft 110 kts 270°
2026-05-06 04:00 33.64955 -84.42915 1005 ft 42 kts 270°
2026-05-06 04:00 33.64930 -84.43160 1006 ft 24 kts 253°
2026-05-06 04:01 33.64873 -84.43310 1005 ft 13 kts 239°
2026-05-06 04:01 33.64846 -84.43408 1005 ft 12 kts 268°
2026-05-06 04:01 33.64833 -84.43508 1006 ft 12 kts 237°
2026-05-06 04:01 33.64767 -84.43568 1006 ft 12 kts 210°
2026-05-06 04:02 33.64696 -84.43618 1005 ft 12 kts 210°
2026-05-06 04:02 33.64626 -84.43665 1005 ft 12 kts 209°
2026-05-06 04:02 33.64542 -84.43710 1005 ft 14 kts 190°
2026-05-06 04:02 33.64441 -84.43721 1005 ft 14 kts 181°
2026-05-06 04:03 33.64346 -84.43721 1005 ft 14 kts 180°
2026-05-06 04:03 33.64270 -84.43717 1005 ft 7 kts 169°
2026-05-06 04:03 33.64234 -84.43709 1005 ft 2 kts 170°
2026-05-06 04:03 33.64224 -84.43691 1005 ft 5 kts 102°
2026-05-06 04:04 33.64223 -84.43652 1005 ft 3 kts 91°
2026-05-06 04:04 33.64223 -84.43643 1005 ft 0 kts 90°